Groton, CT

10:37 PM EDT on August 17, 2017 (GMT -0400)
Groton-New London

Weather History for KGON - October, 2012

Change the Weather History Date:

Sunday, October 7, 2012

  Actual Average Record
Temperature  
Mean Temperature 50 °F -  
Max Temperature 57 °F 65 °F 80 °F (1963)
Min Temperature 42 °F 45 °F 31 °F (1958)
Degree Days  
Heating Degree Days 16    
Moisture  
Dew Point 44 °F    
Average Humidity 78    
Maximum Humidity 92    
Minimum Humidity 53    
Precipitation  
Precipitation 0.02 in - - ()
Sea Level Pressure  
Sea Level Pressure 30.04 in    
Wind  
Wind Speed 3 mph (NNW)    
Max Wind Speed 8 mph    
Max Gust Speed -    
Visibility 9 miles    
Events Rain    
Averages and records for this station are not official NWS values.
T = Trace of Precipitation, MM = Missing Value Source: NWS Daily Summary

Daily Weather History Graph

Daily Weather History Graph

Search for Another Location

Airport or City:

Trip Planner

Search our weather history database for the weather conditions in past years. The results will help you decide how hot, cold, wet, or windy it might be!

Date:

Astronomy

Oct. 07, 2012 Rise Set
Actual Time 6:51 AM EDT 6:19 PM EDT
Civil Twilight 6:24 AM EDT 6:46 PM EDT
Nautical Twilight 5:52 AM EDT 7:18 PM EDT
Astronomical Twilight 5:19 AM EDT 7:50 PM EDT
Moon 11:25 PM EDT (10/7) 1:29 PM EDT (10/7)
Length of Visible Light 12h 22m
Length of Day
11h 27m
Waning Gibbous, 56% of the Moon is Illuminated
Oct 7
Waning Gibbous
Oct 8
Last Quarter
Oct 15
New
Oct 21
First Quarter
Oct 29
Full

Hourly Weather History & Observations

Time (EDT) Temp. Windchill Dew Point Humidity Pressure Visibility Wind Dir Wind Speed Gust Speed Precip Events Conditions
12:56 AM 51.1 °F - 45.0 °F 80% 29.98 in 10.0 mi West 3.5 mph - N/A   Clear
1:56 AM 48.9 °F - 46.0 °F 90% 29.99 in 10.0 mi Calm Calm - N/A   Clear
2:56 AM 48.9 °F - 43.0 °F 80% 30.00 in 10.0 mi Calm Calm - N/A   Clear
3:56 AM 46.0 °F - 43.0 °F 89% 30.01 in 10.0 mi Calm Calm - N/A   Clear
4:56 AM 46.0 °F - 43.0 °F 89% 30.02 in 10.0 mi Calm Calm - N/A   Clear
5:56 AM 42.1 °F 37.7 °F 39.9 °F 92% 30.03 in 9.0 mi NNW 6.9 mph - N/A   Clear
6:56 AM 42.1 °F 40.2 °F 39.9 °F 92% 30.06 in 9.0 mi North 3.5 mph - N/A   Clear
7:56 AM 46.9 °F - 42.1 °F 83% 30.08 in 10.0 mi Calm Calm - N/A   Clear
8:56 AM 52.0 °F - 41.0 °F 66% 30.07 in 10.0 mi North 5.8 mph - N/A   Clear
9:56 AM 55.9 °F - 39.9 °F 55% 30.07 in 10.0 mi North 8.1 mph - N/A   Clear
10:56 AM 55.9 °F - 39.9 °F 55% 30.07 in 10.0 mi NNE 3.5 mph - N/A   Mostly Cloudy
11:56 AM 57.9 °F - 41.0 °F 53% 30.07 in 10.0 mi NW 4.6 mph - N/A   Mostly Cloudy
12:56 PM 57.0 °F - 42.1 °F 57% 30.08 in 10.0 mi NW 6.9 mph - 0.00 in Rain Light Rain
1:56 PM 55.0 °F - 43.0 °F 64% 30.06 in 5.0 mi Calm Calm - 0.00 in Rain Light Rain
2:56 PM 52.0 °F - 46.9 °F 83% 30.06 in 5.0 mi NNW 4.6 mph - 0.00 in Rain Light Rain
3:56 PM 51.1 °F - 46.9 °F 86% 30.05 in 8.0 mi NNW 3.5 mph - 0.02 in Rain Light Rain
4:56 PM 53.1 °F - 45.0 °F 74% 30.03 in 10.0 mi Calm Calm - 0.00 in   Overcast
5:56 PM 53.1 °F - 43.0 °F 69% 30.03 in 10.0 mi Calm Calm - N/A   Overcast
6:56 PM 52.0 °F - 46.9 °F 83% 30.01 in 10.0 mi NE 4.6 mph - N/A   Overcast
7:56 PM 52.0 °F - 48.0 °F 86% 30.01 in 10.0 mi Calm Calm - N/A   Overcast
8:56 PM 51.1 °F - 48.0 °F 89% 30.05 in 10.0 mi NW 3.5 mph - 0.00 in   Overcast
9:16 PM 51.8 °F - 46.4 °F 82% 30.05 in 10.0 mi NW 4.6 mph - N/A   Overcast
9:56 PM 51.1 °F - 46.0 °F 83% 30.06 in 8.0 mi NW 8.1 mph - 0.00 in Rain Light Rain
10:56 PM 48.9 °F - 44.1 °F 83% 30.08 in 10.0 mi NW 6.9 mph - 0.00 in Rain Light Rain
11:56 PM 48.9 °F - 45.0 °F 86% 30.07 in 8.0 mi Calm Calm - 0.00 in Rain Light Rain